Member area
Imprimable
Stambrugge, 26/08/2017, BEL - Trolls X'trem Run 6
List of reports > Troll XTreme Run - Result
Search: Page: [1]
461 Entries
 
Complains are not accepted anymore. Results are final.
PlaceNrNameAgeNATTeamTimeTkmMoy.ScrCity
1.46COULON Olivier37BELTROLLEZ1:14:314:31 13.298VEDRIN
2.176WATTIER Davy36BELDAVY WATTIER1:14:464:32 13.2497141 MONT-SAINTE-ALDEGOND
3.37LABIE Jonathan35BEL1:16:184:38 12.9813CHIEVRES
4.67DEVENYNS Stéphane38BELQUINTEAM1:17:304:42 12.7816MAINVAULT
5.19BOITTE Alexandre36BELQUINTEAM1:19:114:48 12.50227890
6.279HONDEQUIN Manu38BEL1:19:364:50 12.4425BLATON
7.69CUIGNEZ Jeremy38BELMADRES1:20:014:51 12.3727ELLIGNIES-SAINTE-ANNE
8.17MOUREAU David35BELESM1:20:484:54 12.2534BIENNE-LEZ-HAPPART
9.31ABRAHAM Steve38BELPOTES O MALTÈS1:22:064:59 12.0638PIPAIX
10.51DAELS Sebastien35BELPOPUELLES1:23:195:03 11.8843BRAFFE
11.44HALATYN Nicolas38FRA1:23:415:05 11.8345HEM
12.100HELLIN Maxime36BELLES AIGLES DORÉS1:24:135:07 11.7651WIERS
13.135DRUART Jeremy36BELZULTEURS1:24:215:07 11.7452FRASNES
14.47BONFOND Julien35BEL1:25:005:10 11.6555SIRAULT
15.33DAWANT Sébastien37BELCAP NRB1:25:315:11 11.5858ANTHISNES
16.182DEHUT Sebastien37BEL1:26:055:13 11.5061VIEUX-RENG
17.23FIERRO Nicolas35BEL1:26:095:14 11.4962VIEUX-RENG
18.585KHATTOU Halim Roberto36BELKHATTOU1:27:395:19 11.3073HAUTRAGE
19.488RAYE David38BEL1:28:035:21 11.2478BELGIQUE
20.1404DELATTRE Priscilla35BELTHE VOICE TEAM1:28:055:21 11.2481JURBISE
21.25PAPAS Charalampos36GRCSPARTAN TEAM1:28:335:22 11.1887LIÈGE
22.116SCOUBEAU Guillaume35BELRUNANDFUN61:28:515:24 11.1489GALLAIX
23.4096DESCAMPS Johan36BELTDR1:29:065:24 11.1190WIERS
24.4046HUMEZ Sebastien39BEL1:30:065:28 10.9995CALLENELLE
25.4135HENNEBERT Bertrand37BELCBD XTREM TEAM1:30:235:29 10.95977030
26.4108LOUIS Julien35BELBRASSERIE DUBUISSON1:31:155:32 10.85102LESSINES
27.169DELRIVIÈRE Olivier35BELDREAM TREE1:32:335:37 10.70109HUISSIGNIES
28.498BONNIER Jerome35BEL1:32:345:37 10.70110LADEUZE
29.2421BIENFAIT Kevin35BELCO TI1:32:455:38 10.67112BRUGELETTE
30.4095ROBIN Jean Christophe36BELTDR1:32:465:38 10.67113BRAFFE
31.14OVAERE Jimmy35BELLES AIGLES DORES1:33:345:41 10.58122KAIN
32.80BALAND Ludovic36BEL1:34:405:45 10.46126FRAMERIES
33.4165DEBAISIEUX Christophe36BEL1:35:445:49 10.34132QUEVAUCAMPS
34.185PECHER Antoine35BELLPR441:36:205:51 10.28136HYON
35.30ALAMARTINE Arnaud39FRA1:36:575:53 10.21139LAMBERSART
36.881DRUART Olivier35BELZULTEURS1:39:476:03 9.92162FRASNES
37.676GALLOT Michel36BELPASSIVITEDEVANT1:39:546:04 9.91166TOURNAI
38.1105HERVE Coosemans39BEL1:40:386:06 9.84179MEEFFE
39.18BOURLARD David38BEL1:43:526:18 9.53199BURY
40.49TONERO Alexandre35BELTONTONS1:44:026:19 9.52202MONS
41.3019DEMAIRE Laurent37BELTFB1:44:066:19 9.51205QUEVAUCAMPS
42.501MOSSELMANS Thierry38BEL1:44:116:19 9.50207NIVELLES
43.4241VERMEULEN Geoffrey38BELREDECCO1:44:386:21 9.46208JURBISE
44.4056GUZENDA Eddy39BELESCALE1:45:376:25 9.37219BLATON
45.108HAESENNE Thierry39BELDEAF POWER1:46:496:29 9.27235SAINT-NICOLAS
46.2106GROSJEAN Gregory36BELLA BANDE DES CONNARDS1:47:006:30 9.25236GREG-DOICEAU
47.2588MOREAU Edouard37BEL1:47:046:30 9.25237SIRAULT
48.1869DONCQ Baptiste39BELMENNE TEAM1:47:186:31 9.23239CASTEAU
49.2403GILLET David36BELRUN&SMASH1:47:396:32 9.20245ORMEIGNIES
50.2402WALLEMACQ Thierry37BELRUN&SMASH1:47:396:32 9.20246RENAIX
51.302PISERA Manuel38BEL1:48:016:33 9.17248HEUSDEN-ZOLDER
52.2680KLEYNEN Vincent37BELOUFTEAM1:48:026:33 9.16249LIEGE
53.287VANHOREBECK Damien36BELLES DIABOLOS1:48:046:33 9.16250VIESVILLE
54.405CLAUS Cedric39BELVIVATHLETICS1:48:146:34 9.15254MONS
55.4085VION Geoffrey35BELBRASSERIE DUBUISSON1:48:286:35 9.13259BRUYELLE
56.4245MARTENS Guillaume38BELREDECO1:48:486:36 9.102647050
57.1157SADAUNE Jean-François38BELOBJ1:50:096:41 8.99280THULIN
58.509FOURNEAUX Thomas38BELRAGE AGAINST THE ZOMBIE1:50:486:43 8.94286LEUZE
59.1608GOUDSMEDT Arnaud35BELGREENDROP1:50:586:44 8.92289BRUXELLES
60.2180DELSARTE Arnaud38FRAJOWA1:51:136:45 8.90291VALENCIENNES
61.4240DURIEUX Benjamin38BELREDECO1:52:436:50 8.78302MONS
62.4115DEWEERDT Gaétan39BELBRASSERIE DUBUISSON1:52:446:50 8.78304ERE
63.1873MENNE Eric35BELMENNE TEAM1:53:296:53 8.72315MONS
64.1792MULLIER Damien35BELQUINTEAM1:53:306:53 8.72316LEUZE-EN-HAINAUT
65.4230LAURENT Gregory38BELREDECO1:54:006:55 8.68318ERBISOEUL
66.2540THELLIN Michel38BELVAN RACLÉES1:55:106:59 8.60336ACOSSE
67.551DELABELLE Ludovic36BELCROSSFIT LA LOUVIÈRE1:55:507:02 8.55340COURCELLES
68.2627URBAIN Jerome36BELRUGBY BINCHE1:55:537:02 8.54341BINCHE
69.2103ALAIMO David37BELVRUCHTENSAP1:55:577:02 8.54343TRIVIERES
70.717BRISMEE Sebastien39BELULTIMATE DINO1:55:587:02 8.54345RUMILLIES
71.122DELCOL Erwin36BELVRUCHTENSAP1:56:067:03 8.53346MORLANWELZ
72.1104BARDIAU David37BELMEEFFTI1:56:087:03 8.53347ACOSSE
73.178LORENT Olivier36BEL1:56:177:03 8.51350METTET
74.8VAN DYCK Laurent37BEL1:56:187:03 8.51351LESVE
75.190DELSIPEE Nicolas37BEL1:56:187:03 8.51352SART-BERNARD
76.1149MOURRY Guillaume38FRADOUDOU1:56:407:05 8.49354BELOEIL
77.1597VILAIN Yannic39BELAMIS JOGGEURS1:57:477:09 8.41364SAINT SYMPHORIEN
78.357DELBECQ Michael38BELOCR RUN OR DIE1:57:487:09 8.41365TEMPLEUVE
79.762CAPDIVILA Gilles39FRARCNT1:58:217:11 8.37367REBAIX
80.1225DETOLLENAERE Damien37BELETM1:58:517:13 8.33371MOUSCRON
81.273NEMEGHAIRE Benoit35BEL2:00:227:18 8.22384MOULBAIX
82.4125DUBOIS Cedric37BELCBD XTREM TEAM2:00:547:20 8.19396CONDÉ-SUR-ESCAULT
83.647GOETHALS Maxence37BELMADRES2:01:297:22 8.15401THULIN
84.2466ESSOUIDI Abdelah37BELAIKIDO BXL2:01:447:23 8.13405SCHAERBEEK
85.713MARGHEM Damien38BELULTIMATE DINO2:02:447:27 8.07417ANTOING
86.1362LOISELET Pierre35BEL2:02:477:27 8.06419BLAREGNIES
87.4130HÉBRANT Lionel38FRACBD2:03:497:31 8.00436JURISE
88.3012DORCHIES Gael35FRATFB2:03:497:31 8.00437VILLENEUVE D'ASCQ
89.3125VINCQ Manuel35BELLEZ'AMISS2:07:257:44 7.77466ELLIGNIES STE ANNE
90.2299FLAMENG Xavier39BEL2:08:197:47 7.72475BLATON
91.1307LAMOOT Cedric38BELFRIENDS HUSBANDS2:09:147:50 7.66480REKKEM
92.4242CRUNELLE Gregory39BELREDECO2:09:237:51 7.65484MONS
93.201THONET Bertrand37BEL2:09:597:53 7.62492BOIS-D'HAINE
94.823LELION Sylvain35BELLES POTES Ô MALTÉS2:10:007:53 7.62493BAUGNIES
95.962RODRIGUE Aniel39BELLES BOULETTES2:10:027:53 7.61496ATH
96.821BREVERS Didier38BELLES POTES Ô MALTÉS2:10:037:53 7.61497BAUGNIES
97.832KERSTEN Quentin35BELLES DJONDUS2:12:178:02 7.48541BINCHE
98.558MESTDAGH David38BELMESTDAGH DAVID2:12:398:03 7.46549NECHIN
99.599CASTAIGNE Matthieu37BEL2:12:418:03 7.46552ANGLEUR
100.209FLORANGE Florange37FRAOCR BELGIUM WALLONIA2:12:458:03 7.46555OBIGIES
101.1902DESENFANS Olivier38BELTROLLEZ!2:14:238:09 7.37569MEUX
102.639DUBOIS Mirko39BELMADRES2:14:378:10 7.36575BAUGNIES
103.1124WOLNY Jean-Christophe36BELWOLNYTEAM2:14:548:11 7.34580LA LOUVIERE
104.2777GUILLAUME Laurent39BELPALADIGA TEAM2:15:338:13 7.30585BARRY
105.1398D'HAESE Francois36BELTHE VOICE TEAM2:15:468:14 7.29589JURBISE
106.1394SOYEUR Geoffrey39BELTHE VOICE TEAM2:15:478:14 7.29590JURBISE
107.2539GRILLO Thomas35BELVAN RACLÉES2:16:308:17 7.25595FRAMERIES
108.3204RENARD Sébastien36BELTORTOS TEAM2:16:408:17 7.24599LIÈGE
109.3206TORTORA Frédéric38BELTORTOS TEAM2:16:408:17 7.24600NIVELLES
110.1452AMAND Benjamin39BELTRIATH2:16:488:18 7.24604JEMAPPES
111.1467TUDISCO Enrique35BELTONTONS2:17:008:19 7.23609COUILLET
112.846DENEUBOURG Gregory37BELBANZAI2:17:028:19 7.23612TOURNAI
113.835ROTSAERT Piat36BEL2:17:028:19 7.22614ORCQ
114.960DAUCHOT Cédric38BELLES MONTAGNARDS2:17:288:20 7.20621STRÉPY-BRACQUEGNIES
115.2377BLOMME Aymeric39FRALES BALOCHARDS2:17:338:21 7.20623COMINES
116.534FABIAN Lemoine36BEL2:18:358:24 7.14636THUMAIDE
117.3060LOUVIAU Jérôme36BELLES ÉVADÉS2:18:518:25 7.13640BARRY
118.1063PARLANTE Arno36BELFLOTCHFLOTCH2:19:188:27 7.11644WOLUWE-SAINT-LAMBERT
119.359SPECOGNA Albano35BELOCR RUN OR DIE2:20:428:32 7.04666HENSIES
120.2104PETRUZZELLA Mauro37BELVRUCHTENSAP2:21:188:34 7.01675TRAZEGNIES
121.1031TARGE Roald37BELSWIFT2:21:228:35 7.00679GEMBLOUX
122.2807LABIE Christophe39BELLES DÉGLINGUÉS2:21:268:35 7.00682GRANDMETZ
123.727ADAM Vincent35BELPAS SI VITE DEVANT2:22:158:38 6.96703GRAND RENG
124.728THIRY Benoît35BELPAS SI VITE DEVANT2:22:168:38 6.96704GRAND-RENG
125.723LECLERCQ Gary35BELPAS SI VITE DEVANT2:22:518:40 6.93708GRAND-RENG
126.4118DRUEZ Guillaume37BEL2:23:028:41 6.92715WAUDREZ
127.2489DENUNCQ Nicolas39FRALES BOBBIES2:23:458:43 6.89726LAMBERSART
128.2504EL BOUSSATI Khalid39BELLES N'HULKS2:25:598:51 6.78768NIMY
129.1290VANDE WEYER Vincent38BELBIOUL2:26:518:54 6.74782GODARVILLE
130.1215QUINTILI Pierre-Yves39BELLA CULMINANTE2:27:298:57 6.71792WAIMES
131.669PIERART Gontran39BELMADRES2:27:548:58 6.69798THULIN
132.1576DEVIAENE Bertrand35BELZSWAPI2:28:389:01 6.66812TAINTIGNIES
133.1512RADERMACHER Lory36BELMEGALORY2:29:019:02 6.64835COURCELLES
134.354WARGNIES Cédric37BELOCR RUN OR DIE2:29:119:03 6.64839MAUBRAY
135.2271HABITS Sébastien35BELDREAMTEAM2:29:129:03 6.64840MONS
136.4029DEHON Thomas35BELCOCA-COLA2:29:209:03 6.63842FAUROEULX
137.3047CAPIAU Cédric39BELA FOND LES BALLONS!2:30:119:07 6.59863GUSSIGNIES
138.3244BARTHELEMI Raphaël35BELFITFORFUN2:30:139:07 6.59865GEMBLOUX
139.2732KOEUNE Xavier37BELCOURSAKOFF2:30:509:09 6.56879HUPPAYE
140.2733DESMARETS Antoine38BELCOURSAKOFF2:30:519:09 6.56880HAVELANGE
141.2035DELRUE Cédric38FRAROLLING TROLLS2:30:529:09 6.56881WINGLES
142.2863PEETERS Olivier37BELFBT2:31:009:10 6.56884VILLE-EN-HESBAYE
143.2497MOUCHERON Julien38BELA FOND LES BALLONS !2:31:089:10 6.55885SAINT-DENIS
144.2492PRAT Y VILA Steve35BELA FOND LES BALLONS !2:31:099:10 6.55887MONS
145.4223DESCAMPS Kevin35BELTEAM D-CAN2:31:449:12 6.53891HAVAY
146.1378EVRARD Julien35BELMARIE CURIE2:32:149:14 6.50897VELAINE-SUR-SAMBRE
147.351HENRY Pascal38BELOCR RUN OR DIE2:32:489:16 6.48922MAUBRAY
148.527MASQUELIER Robin36BEL2:32:519:16 6.48925MONS
149.751MELCHIOR Nicolas38BELLES FOIREUX2:32:529:16 6.48926VILLE-SUR-HAINE
150.1990SOLIER Benjamin38FRAPOMPIER MAREUIL2:32:549:16 6.47927MAREUIL SUR OURCQ
151.807DELANGRE Jérémy37BELLA CORDÉE2:33:419:19 6.44946ARQUENNES
152.374TILLEUX Sébastien38BELLA CORDEE2:33:439:19 6.44948MASNUY SAINT JEAN
153.1371CADRON Thomas36BEL2:34:089:21 6.42959HOLLAIN
154.2356DEHAM Mathieu37BEL2:34:129:21 6.42960WARQUIGNIES
155.572PIERARD Daniel37BELTEAM CHIEVRES2:34:229:22 6.41962CHIÈVRES
156.4092MAGONETTE Xavier37BELEVOLUTION2:34:289:22 6.41964MONS LEZ LIEGE
157.2108MERTENS Thomas35BELLA BANDE DES CONNARDS2:34:499:23 6.39968ARQUENNES
158.2330CROIX François-Philippe36BELFRANÇOIS-PHILIPPE CROIX2:34:509:23 6.39969BRUXELLES
159.2817THONON Louis37BELLA BANDE DE CONNARDS2:34:519:24 6.39970CEROUX MOUSTY
160.2107VAN LIERDE Stéphane36BELLA BANDE DES CONNARDS2:34:539:24 6.39971MELLERY
161.1751DE SMET Stephane38BELDIABLOTINS2:35:019:24 6.39975QUEVAUCAMPS
162.465DUQUESNE Ludovic36FRAHOUBLONNEUX2:35:099:25 6.38979NIVELLE
163.2404JOURQUIN Julien35BELRUN&SMASH2:35:099:25 6.38980ORMEIGNIES
164.2661GREF Flavien37FRALES HOUBLONNEUX2:35:119:25 6.38981NEUVILLE SUR OISE
165.2662GOLDIAN Cedric36FRALES HOUBLONNEUX2:35:129:25 6.3898259264 ONNAING
166.770CHOJNACKI Carl37FRAMAMACO2:35:429:27 6.36989ANICHE
167.1376SALENGROS Raphaël35BELMARIE CURIE2:35:469:27 6.36991FARCIENNES
168.3223LEBRUN Pierre36BELLES BIDASSES2:35:509:27 6.35993BRAY
169.4141SIEUW Alexandre36BELLOCASIX2:36:319:30 6.331002MONTROEUIL-AU-BOIS
170.902SACHON Nicholas39USASHAPE SCUBA2:36:479:31 6.311010HAVRE
171.2434DENIS Joel37BELLES DENISES2:37:229:33 6.291019REKKEM
172.3194DUPUIS Nick36BELRUNNERS ANA2:37:299:33 6.291022BRUXELLES
173.959LEBLON Julien38BELLES MONTAGNARDS2:37:449:34 6.281028GOZÉE
174.3254HAVET Florian38FRASHOWER OF WANKER2:37:509:34 6.271029CHAMPION
175.3252DUMONT Nicolas37FRASHOWER OF WANKER2:37:599:35 6.271034VIEUX-CONDÉ
176.2711PICAVEZ Pascal36FRALES NAINS PORTANT QUOI2:38:139:36 6.261042Q UIERY LA MOTTE
177.1185DESSILLY Didier37BELOBJ2:38:339:37 6.241048COLFONTAINE
178.2015DESSILLY Dimitri36BELFREROZ2:38:419:38 6.241049BOIS D'HAINE
179.2024COVELIERS Lionel36BELFREROZ2:38:429:38 6.241050CHAPELLE
180.2023NIEUS Kevin35BELFREROZ2:38:439:38 6.241051TEMPLOUX
181.3255STETTMEIER Guillaume37FRASHOWER OF WANKER2:38:459:38 6.241052NIL ST VINCENT
182.427TAS Jean-Yves37BELLES RRRRRRRESCAPÉS2:39:029:39 6.231056CARNIÈRES
183.2971ROSSIGNOL Ronald36BELTEAM MDVERRE VIDRALA2:39:079:39 6.221059JURBSIE
184.1255CARION Gaetan38BELLES CRAZY2:39:359:41 6.201075CHIÈVRES
185.3272SERVRANCKX Damien37BELBAXFOREVER2:39:439:41 6.201078SAINTES (TUBIZE)
186.1811ANSART Fabian36BELLES DUCONS2:39:519:42 6.191080TAMINES
187.1943BOURGEOIS Aldric35FRALENSOIS2:40:299:44 6.171087PIERREFONDS
188.2055BEDART Jerome36BELLES 2 B2:40:379:45 6.161091GAURAIN-RAMECROIX
189.1106AVET Steve38BELRRR2:40:419:45 6.161093RUMES
190.2684GAUDIN Sylvain35BELLES DRESSEURS DE LICORNES2:40:539:45 6.151098HAILLOT
191.505GOEMAES Nicolas38FRANICOLAS GOEMAES2:41:089:46 6.141103SAINT-SAULVE
192.2788PIRAPREZ Manu36BELLES OURS BOURRÉS2:41:419:48 6.1211184217
193.993MIGLIORE Jean-François37BELA FOND LES BALLONS2:41:569:49 6.111125MONS
194.1267DAMANET Steve38BELLOMA2:42:229:51 6.101133THUMAIDE
195.2011BOSHYK Nicolas36BELBORUSSIA MONTAGNARD2:42:569:53 6.081143BELOEIL
196.1743KOWALIK Christophe35BELLES GUIGNOLS D'HERCHIES2:43:139:54 6.071155HERCHIES
197.2368INGRASCI Vincent37BELPARDON2:43:169:54 6.061162GOZÉE
198.1079BROOTCORNE Benjamin38BELRETHO TROPHY 972:43:189:54 6.061163HANTES-WIHERIES
199.466COPPEE Bruno38BELRHÉTO TROPHY 972:43:189:54 6.061164THUILLIES
200.559LEFEBVRE Gaetan35BELGAETAN LEFEBVRE2:43:259:55 6.061166SART
201.923STEUVE Giovanni35BELCRAZY FAMILY2:43:429:56 6.051169WILLEMEAU
202.920GILBART Xavier35BELCRAZY FAMILY2:43:449:56 6.051172WARCOING
203.773DEROISSART Rudy38BELTROLLS RIDERS2:43:489:56 6.041173VEZON
204.2454WALASIAK Steve39BELSWATT TEAM2:43:559:57 6.041178STAMBRUGES
205.2101BRUCCOLERI David35BELVRUCHTENSAP2:43:599:57 6.041181GODARVILLE
206.4112MAES Antonin38BELBRASSERIE DUBUISSON2:44:139:58 6.031182BRAINE LE CHÂTEAU
207.772DOYEN Stephane38BELTROLLS RIDERS2:44:289:59 6.021189BECLERS
208.1541VANZEVEREN Olivier36BELZSWAPI2:44:4910:00 6.011190MOUSCRON
209.3185DEGAND Ludovic37BELLES RANGERS DE L'ESPACE2:45:1710:02 5.991209COLFONTAINE
210.3183THIÉBAUT Matthieu38BELLES RANGERS DE L'ESPACE2:45:1810:02 5.991210HORNU
211.2837THOMAS Dimitri35BEL2:45:3810:03 5.981222PERUWELZ
212.2446VAN CALSTER Fabian38BELLES NULS2:46:0110:04 5.961226QUEVY
213.623VAN CALSTER Gerald37BEL2:46:0210:04 5.961227
214.649FOUGNIES J-F39BELMADRES2:46:1410:05 5.961234PÉRUWELZ
215.2619LAMBERT Hervé37BELSAN1002:46:2610:06 5.951237MARCINELLE
216.1825CARBON Jean-Vincent35BELGIPS TEAM2:46:2810:06 5.951242TAINTIGNIES
217.2893RIGAUD Anthony38FRATRITONS CASCADEURS2:46:4610:07 5.941249CLETY
218.1213NICAISE Julien37BELSFPD2:46:4610:07 5.941252BRUXELLES
219.1211REIZER Fabian38BELSFPD2:46:4710:07 5.941253GLABAIS
220.1769ROOZE Nicolas36BELLES HURLUS VONT HURLER2:47:1210:08 5.921261MOUSCRON
221.1799CANIPEL Sébastien35BELCANI2:47:2110:09 5.921266GRANDMETZ
222.2692LHOIR Laurent39BELLES TROLLENTS2:47:5110:11 5.901273BELOEIL
223.2119PIATTEAU Giovanni36BELALCOOLYMOUS2:47:5510:11 5.901278BELOEIL
224.1929BALASSE Alexandre37BELTIVOLI2:47:5710:11 5.901280SAINT VAAST
225.1170DELCROIX Michael37BELOBJ2:47:5710:11 5.891281BOUSSU
226.1171DUBOIS Cédric38BELOBJ2:47:5810:11 5.891282HALLE
227.2117HOOREMAN Kurt37BELALCOOLYMOUS2:48:0010:11 5.891284FLOBECQ
228.1857AGUILERA Philippe38BELAGUIRUN2:48:0810:12 5.891295FOSSES-LA-VILLE
229.507TOMBEUR Olivier35BELOLIVIER TOMBEUR2:48:0910:12 5.891296HENNUYÈRES
230.2891PODEVIN Eric38FRATRITONS CASCADEURS2:48:1910:13 5.881297SELLES
231.1472HERRYGERS David39BELSURFEURS ARTIFICIELS2:48:2610:13 5.881298MONS
232.438STAMATIOU Bruno36BELLES DEGLASSES2:48:3410:13 5.871302BAUDOUR
233.439JACQUERIE Guillaume39BELLES DEGLASSES2:48:3610:14 5.871303QUEVY
234.377VAN DE GINSTE Sebastien36BELLA CORDEE2:48:3910:14 5.871308GAURAIN-RAMECROIX
235.118CROMPOT Florian37BELMADRES2:48:5810:15 5.861315BELOEIL
236.1729WILLEMS Pierre38BELTEAM WILL'S2:48:5810:15 5.861317VISE
237.1730DE WIT Jean-Yves36BELTEAM WILL'S2:49:0110:15 5.861318VISÉ
238.1732LAGRENET Mike39BELTEAM WILL'S2:49:0210:15 5.861319VISÉ
239.2076HENDRICKX Julien35BELLA CHÂÂÂLE TEAM2:49:1110:16 5.851321STAMBRUGES
240.2311DEGRAEVE Denis37FRA2:49:3010:17 5.841334GODEWAERSVELDE
241.1545SPIESSENS Yannick37BELZSWAPI2:49:3510:17 5.841337HERSEAUX
242.1858DOUMONT Michael38BELAGUIRUN2:49:3810:17 5.841344METTET
243.3127TOUSSAINT Matthieu37BELLEZ'AMISS2:50:2310:20 5.811364CELLES
244.2528FRISON Steve39BELFRISON-FRANCOIS2:50:2510:20 5.811366BLATON
245.2042COLERY Fabian38BELRAGE AGAINST THE ZOMBIES2:50:3310:21 5.811371WADELINCOURT
246.2437CAULIER Sébastien39BELARA2:50:3310:21 5.801374QUIEVRAIN
247.646DEPAEPE Lionel37BELMADRES2:50:4010:21 5.801379DOUR
248.2487HERVE Goulven36FRAMANONL2:50:5210:22 5.791383BETHUNE
249.1753MEEUS Gabriel35BELDIABLOTINS2:50:5910:22 5.791388QUIEVRAIN
250.837LETOT Christian36BEL2:51:1810:23 5.781398VILLE-POMMEROEUL
251.1317BUI QUOC Olivier39BELHERMES2:51:4610:25 5.761409LONCIN
252.732MARINX Frédéric39BELLES CAMPENAIRES2:51:5510:26 5.761416HAUTRAGE
253.1911DESSET Julien35BELWOEPS TEAM2:52:0610:26 5.751421BRRUXELLES
254.1910VANDERSTICHELEN Xavier35BELWOEPS TEAM2:52:1410:27 5.751425HORRUES
255.597TASSART Maxime37BEL2:52:3010:28 5.741431DOTTIGNIES
256.43WILLOCQ Jonathan35BEL2:52:4510:29 5.731440GALLAIX
257.2268ANDRE Benoit38BELSCSC2:53:0810:30 5.721443GOUY-LEZ-PIÉTON
258.2265VERMEULEN Matthieu36BELSCSC2:53:0810:30 5.721444OHEY
259.1912LOCUS David38BELWOEPS TEAM2:53:1810:31 5.711449WAVRE
260.2230DEKOSTER Damien39BELLES WALEFFES2:53:2310:31 5.711454NANDRIN
261.1562LEROY Laurent35BELZSWAPI2:55:1710:38 5.651477RONGY
262.729LION David37BELLES CAMPENAIRES2:55:4610:40 5.631492STAMBRUGES
263.390DEHAESE Laurent38FRADK TEAM2:55:5810:40 5.631494SAINT-PIERRE-BROUCK
264.396VILLETTE Bruno37FRADK TEAM2:56:0110:41 5.621496DUNKERQUE
265.1470DIDIER Jean-François35BELTONTONS2:57:1210:45 5.591518BOUFFIOULX
266.2095BORRECA Luigi35BELCROSSFIT LALOUVIERE2:57:5710:48 5.561533CHAPPELLE-LEZ-HERLAIMONT
267.2633VERBIEST Cédric37BELCOACHSPORTIF.CLUB2:57:5710:48 5.561534ATTRE
268.2066GONSETTE Jean-Sébastien37BELOBROTHERS2:58:0210:48 5.561537LA BOUVERIE
269.3147BAIX Benjamin37BELLES BILOUTES EN FOLIE2:58:4610:51 5.541544BINCHE
270.3148DRAMAIX Frédéric38BELLES BILOUTES EN FOLIE2:58:4810:51 5.541545HERCHIES
271.3146BALCAEN Samuel38BELLES BILOUTES EN FOLIE2:58:5010:51 5.541548FRAMERIES
272.536CZEKALSKI Nicolas35BEL2:59:0310:52 5.531558HYON
273.2814DELTOMBE David35BEL2:59:2810:53 5.521572MARQUAIN
274.4266BONDROIT FREDERI Frederic37BEL2:59:3210:53 5.511576GAURAIN
275.4066CRETAL Jeanb-Francois36BELYAKASAUTER3:00:0410:55 5.5015847500
276.4063LABUCHE Antoine39BELYAKASAUTER3:00:0510:55 5.501586TEMPLEUVE
277.4064USAL Thomas36BELYAKASAUTER3:00:0810:55 5.501590DOTTIGNIES
278.4057COURIER Lionel36BELYAKASAUTER3:00:1410:56 5.4915957520
279.2017DEROULEZ Frederic39BELFREROZ3:00:5410:58 5.471614MAISIÈRES
280.2525VAN WAESBERGHE Rodolphe38BELCHAUD BOULETTE3:02:0011:02 5.441650HAULCHIN
281.2912TRIFAUX Maxime38BELGALOUPE3:02:0311:02 5.441652CHARLEROI
282.3164COLLIE Pierre38BELLA ROCK'N'TROLLS3:02:0411:03 5.441653SOIGNIES
283.3163WERON Thomas39BELLA ROCK'N'TROLLS3:02:0611:03 5.441654TOURNAI
284.3166CLAREBOUT Ludovic39BELLA ROCK'N'TROLLS3:02:0611:03 5.441655SOIGNIES
285.935LAVENS Jean-François38BELBEST FRIENDS3:02:0711:03 5.441657DOTTIGNIES
286.1237KPOZE Jean Luc36FRACTR3:02:0911:03 5.441664UCCLE
287.3310MASNAOUI Morad35BELIRON BABIES3:02:5511:06 5.411676LIMELETTE
288.1755PARLA Herrador36ESPLA CLAAASSSSS3:02:5711:06 5.411682BRUXELLES
289.3306DESNEL Arnaud36BELDRINK TEAM3:02:5811:06 5.411683METTET
290.1604DE WEIRELD Pierre37BELPIERRE DE WEIRELD3:02:5911:06 5.411685BELOEIL
291.645LECOMTE David39BELMADRES3:03:0211:06 5.411686THULIN
292.1464SALMIN Pierre35BELTONTONS3:03:5211:09 5.381701JAMBES
293.1875ERGUN Lerby35BELON COURT3:04:1711:11 5.371717MOLENBAIX
294.4246CORDIER Quentin35BELONE BEAUFS DIRECTION3:04:3511:12 5.361727HERCHIES
295.1508LIBERT Eric37BELKIN&FIT3:04:3611:12 5.361728AUVELAIS
296.1635GAUTIEZ Benoit36BELLES AIGLES DORES3:04:5511:13 5.351739MAUBRAY
297.4323VERSET Thomas38BELABEL-5319-LEONIDAS3:05:2011:14 5.341754HUISSIGNIES
298.4307BOEL Pascal36BELABEL-5319-LEONIDAS3:05:2111:14 5.341756BLICKY
299.2969JASCHKO Guillaume37BELTEAM MDVERRE VIDRALA3:05:3611:15 5.331769ANDENNE
300.2970JASCHKO Pierre36BELTEAM MDVERRE VIDRALA3:05:3711:15 5.331771GHLIN
301.4325MARRAS Aland35BELABEL-5319-LEONIDAS3:05:4811:16 5.331785BERNISSART
302.1932HELLIN Fabrice39BELFRENCH TEAM3:05:5511:17 5.331794PÉRUWELZ
303.1067RONVAUX Geoffroy36BELLES CLETTTT3:06:0011:17 5.321799MARCINELLE
304.4004GARNI Cedric38BEL3:06:1911:18 5.311805BAUDOUR
305.3136LAMBEAUX Olivier38BELPOLNAM3:07:0611:21 5.291814MARCHOVELETTE
306.3135BURNY Jonathan36BELPOLNAM3:07:0711:21 5.291817ANDENNE
307.2445VAN CALSTER Gerald37BELLES NULS3:07:1811:22 5.291821AULNOIS
308.3138VINCENZOTTO Jonathan35BELPOLNAM3:07:1911:22 5.291822JAMBES
309.1891DESCAMPS David37BELCAFETERIA DES 2HAINE3:08:1511:25 5.261849BOUGNIES
310.389DEVROUX Nicolas35FRAUFOLEP3:08:2211:25 5.261854VALENCIENNES
311.3090HUEZ Lionel36BELBLAUGIES TEAM3:08:3211:26 5.251860BLAUGIES
312.410CAULIER Bertrand37BELLES BRONZÉS FONT DU SPORT3:08:3311:26 5.251861PERUWELZ
313.411DEWAELE Jean-François36BELLES BRONZÉS FONT DU SPORT3:08:3311:26 5.251862ELLIGNIES
314.4239GILRON Stéphan37BELREDECO3:08:4011:27 5.251870JURBISE
315.1688RODRIGUE Van Der Stichelen35BELVAN DER STICHELEN RODRIGU3:08:4011:27 5.251871BASECLES
316.2499GLACÉ Arnaud39BELA FOND LES BALLONS !3:09:1011:28 5.231882MASNUY-SAINT-JEAN
317.1885ARRIGO Fabrice39BELCAFETERIA DES 2HAINE3:09:1611:29 5.231884ANDERLUES
318.3320KINO Johan38BELLES JACKYS3:09:5111:31 5.211899ESTAIMPUIS
319.2694FLAMENG Laurent39BELSMASH&RUN3:09:5211:31 5.211900REBAIX
320.3285ROSSI Pierre35FRACH'TI WILD3:10:2011:33 5.201913BOULOGNE-SUR-MER
321.1252GORTS-HORLAY Pierre-Emmanuel39BELLES CRAZY3:12:1411:40 5.151959FLOBECQ
322.2224DEGOUYS Yann38BELPASSEPARTOUT3:12:1611:40 5.151961HAUTRAGE
323.1764FONSECA Jean-Paul39BELMOUSTROLLNOIS3:12:4711:42 5.141975HERSEAUX
324.1296MASCARELLO Christophe39BELTROLLEZ3:13:2511:44 5.121983CHENÉE
325.1906THIRY Fabian39BELTROLLEZ!3:13:2611:44 5.121984EMBOURG
326.1373WATHELET Damien38BELMARIE CURIE3:14:0611:46 5.101993LOVERVAL
327.1938RACQUEZ François37BELLES SUPERZHEROS3:14:1611:47 5.102002PIPAIX
328.1939LEULIER Jean-François35BELLES SUPERZHEROS3:14:1811:47 5.102006MELLES
329.735LEMEL Pierre35FRALES ENFILEURS DE PERLES3:14:3511:48 5.092035MARCQ EN BAROEUL
330.737LEMEL Guillaume37FRALES ENFILEURS DE PERLES3:14:3611:48 5.092037MARCQ EN BAROEUL
331.738HERTAULT Thomas36FRALES ENFILEURS DE PERLES3:14:4811:49 5.082045MARCQ EN BAROEUL
332.531HANNART Ludovic38BELLUDOVIC HANNART3:14:5311:49 5.082049MONTIGNY-LE-TILLEUL
333.2202MALSAGNE Benoit38FRALES TROLLISTES3:14:5411:49 5.082050SAINT AMAND LES EAUX
334.2204PRÉSEAU Christophe37FRALES TROLLISTES3:14:5711:49 5.082053SAINT AMAND LES EAUX
335.2616LEULIER François38BELLEULIER3:15:5111:53 5.062062LENS
336.4243MEUNIER Jean-François38BEL3:15:5111:53 5.052063LENS
337.2617LEULIER Nicolas35BELLEULIER3:15:5411:53 5.052067ORMEIGNIES
338.598PINGITORE Fabio39BEL3:17:3411:59 5.012099CASTEAU
339.1488COTTON Philippe37FRASURFEURS ARTIFICIELS3:17:3911:59 5.012104LOOS
340.4032SANTUS Alex37BELCOCA-COLA3:17:4211:59 5.012107ERBISOEUL
341.3028URBAIN Jonathan37BELCASTEL3:17:4912:00 5.002115LESDAIN
342.3021CAMPENER Julien36BELCASTEL3:17:5012:00 5.002116BLEHARIES
343.3029LEDENT Johan38BELCASTEL3:17:5112:00 5.002119LESDAIN
344.3020VOITURIER Laurent37BELCASTEL3:17:5312:00 5.002121BLÉHARIES
345.4168DEBAISIEUX Christophe36BEL3:17:5512:00 5.002122QUEVAUCAMPS
346.3031DEVOS Blaise-Antoine39BELCASTEL3:18:0412:01 5.002129SAINT-MAUR
347.3026DUFOUR Matthieu36BELCASTEL3:18:0412:01 5.002130WEZ
348.3032TELLIER Jean François38BELCASTEL3:18:0412:01 5.002131FAUVILLERS
349.612QUENTIN Kejnich37BEL3:18:4012:03 4.982147EUGIES
350.618GILJEAN Benjamin38BELHAPPART SIRAULT3:18:4012:03 4.982148WHIÉRIES
351.617LUC Gerodez37BELHAPPART SIRAULT3:18:4412:03 4.982153SIRAULT
352.3044DESMARETS Mathieu38BELVIKTEAM3:19:5812:08 4.952175GEMBLOUX
353.2667FALEMPIN Jonathan37BELFRIENDS3:20:0612:08 4.952178GAURAIN
354.1652DIEPDAEL Gael36BELLES AIGLES DORES3:20:3812:10 4.932204GIVRY
355.3201SCHYNS Thomas37BELLES MARVELEUX3:22:1312:16 4.902252GH
356.181KONARSKI Lionel38BELGT TEAM3:22:2112:16 4.892260ST-GHISLAIN
357.890DELSANNE Tanguy36BELENFER DES COLINES3:23:0612:19 4.872283WODECQ
358.336HUON Gregory39BELENFER DES COLLINES3:23:0912:19 4.872290DILBEEK
359.1731DELIAERT Stéphane39BELTEAM WILL'S3:24:1112:23 4.852300QUEVAUCAMPS
360.3189BOHY John37BELSEB3:24:2712:24 4.842309BURY
361.2376PILLE Kevin38FRALES BALOCHARDS3:24:4912:25 4.832319ANNOEULLIN
362.1842LAURENT Eric36BELXMEN3:25:5812:29 4.812336QUIÉVRAIN
363.1191DI ROBERTO Tony35ITABACHYNOIS3:27:5712:37 4.762382TERTRE
364.2208DERENTY Kevin37BELVADOR3:28:0912:37 4.762392LENS
365.2516LIÉGEOIS Frank39BELTRADECO3:28:5212:40 4.742413FRASNES
366.2517DEROUBAIX David35BELTRADECO3:28:5412:40 4.742416MOLENBAIX
367.3159FRIEDRICH Geoffrey37BELFISHTIK3:29:0212:41 4.742424QUAREGNON
368.698LIETARD Cedric37BELLES WAPITIS3:29:0912:41 4.732425STAMBRUGES
369.3033WRZOSRIEWICZ John35BELLES N'ULKS3:30:0012:44 4.712448BAUDOUR
370.2723GARRIC Rémy39BELCOCHONOU FOVERER3:30:0112:44 4.712449LESSINES
371.1007COULOMBEL Baptiste37FRACOMMEJEVEUX3:30:1212:45 4.712453LANDRETHUN LES ARDRES
372.1009LOUIS Jérôme38FRACOMMEJEVEUX3:30:1312:45 4.712454BLERIOT
373.3144BAVIER Sylvain38BELTEAM BAVIER3:30:3912:46 4.702459LA BOUVERIE
374.1002DEVOS Julien35BELLES-TROPS-LAIDS3:30:5512:47 4.692466HERINNES
375.2704DECONINCK Pierre35BELUPPERWAVE3:31:0412:48 4.692471VEZON
376.3178SENEZ Nicolas37FRASEX MARINS3:31:5712:51 4.672489SIN LE NOBLE
377.3170DEMORY Laurent35FRASEX MARINS3:32:0312:52 4.672497DECHY
378.3167HEROGUEZ Paul37FRASEX MARINS3:32:0812:52 4.672500SIN LE NOBLE
379.859DUQUESNE Jean Luc37BELJEAN LUC DUQUESNE3:33:1112:56 4.642516STAMBRUGES
380.3333HERVE Goulven36FRA3:33:2412:56 4.642526BETHUNE
381.2922TOULLEC Éric37FRAVDSP223:33:2512:57 4.642529WASQUEHAL
382.3257COLMANT-MIDOL Charles36BELRENARDISE3:33:2912:57 4.642532BLATON
383.4122CAPIAU Benoit37BELCBD XTREM TEAM3:34:0612:59 4.622537MONS
384.3293FOUQUEMBERG Maxime39BELBTF TEAM3:34:0812:59 4.622538AUBECHIES
385.2798VANCOILLIÉ Nicolas35FRATEAM VANCOILLIÉ3:34:4113:01 4.612548EMMERIN
386.1620PROVITINA Emmanuele35BELLES 8 SALOPARDS3:34:5513:02 4.612561BOUSSU
387.1618PORROVECCHIO Salvatore36BELLES 8 SALOPARDS3:34:5513:02 4.612562BOUSSU
388.2132VARRIERE Aurelien35FRAJ.A.V.3:34:5513:02 4.612564VENDIN-LE-VIEIL
389.739PAYEN Gerome35BELHIGHLANDER3:36:4113:08 4.572600MONS
390.471LARREA LARRINAGA Isaias36BEL3:36:4113:08 4.572601FAYT LE FRANC
391.1650DUPONT Cedric36BELLES AIGLES DORES3:37:3113:11 4.552617MAUBRAY
392.1923RENDERS Christophe38BELBANANA3:37:4613:12 4.552620WIERS
393.1177BOHET Maurice37BELOBJ3:39:1113:18 4.522679LIÈGE
394.2682MILIS Gonzague39BELOUFTEAM3:39:3913:19 4.512686LIEGE
395.1982LECLERCQ Steve35BELJSMCTEAM3:39:5613:20 4.502689WARCOING
396.1988DEPAUW Aurélien36BELJSMCTEAM3:39:5813:20 4.502692HÉRINNES
397.1986DERIEUW Bertrand38BELJSMCTEAM3:40:0013:20 4.502696LUINGNE
398.1985DEMETS Hervé38BELJSMCTEAM3:40:0713:21 4.502700WARCOING
399.1654MAZUREL Sebastien35BELLES AIGLES DORES3:40:0813:21 4.502702MAUBRAY
400.3226CAUCHETEUX Christophe38FRALDF3:40:1213:21 4.502710FLINES LES MORTAGNE
401.3064BOURGUET Brice36BELLA BÊTE HUMAINE3:43:0213:31 4.442748LENS
402.2431AUBRY Philippe36FRAXNORME3:43:0513:32 4.442751VALENCIENNES
403.2430BABONNEAU Jean-Pierre35FRAXNORME3:43:0513:32 4.442752ROUBAIX
404.3014MUREZ Julien36BELTFB3:44:3013:37 4.412772WADELINCOURT
405.2589LADAVID Julien36BELJULIEN LADAVID3:44:3413:37 4.412773GAURAIN-RAMECROIX
406.3018DEFAYS Gwenael36BELTFB3:44:3613:37 4.412776ONNEZIES
407.3017DELARUE Florent35BELTFB3:44:4113:37 4.412782MOUSTIER
408.2714QUINCHON Nicolas39BELAISINXTREM3:45:3313:41 4.392791MONS
409.1861CARETTE Patrice38BELBICEPS3:45:3913:41 4.392795WARCHIN
410.1859LUDOVIC Dejehansart37BELBICEPS3:45:4013:41 4.392797MOUSCRON
411.1749ROOS Angelo39BELRONSE3:47:1413:47 4.362803RONSE
412.1747VANWEYMEERSCH Didier39BELRONSE3:47:4213:48 4.352818ELLEZELLES
413.3133COPIN Frederic38FRALES FRAPPATARES3:49:0313:53 4.322839FLEURBAIX
414.2172MICHALSKI Yannick37FRAJOWA3:49:2113:54 4.322845BRUAY SUR ESCAUT
415.2177HUREZ Frédéric37FRAJOWA3:49:2813:55 4.312853LA SENTINELLE
416.325NEVEUX Jean-Robert39BELASBL TOUT TERRAIN3:49:3413:55 4.312854HONNELLES
417.1663LAVERSIN Samuel37FRALA TROLL DE TEAM3:49:5913:57 4.302860MERVILLE
418.2441GAUQUIE Patrice37FRADRACULOS3:50:0613:57 4.302867CAESTRE
419.2719ROBERT Cédric38BELCEDVIRG3:52:1914:05 4.262883WIHÉRIES
420.2861ISTA Vincent35BELFBT3:53:2214:09 4.242894OREYE
421.1436DEBUY Frederic38BELLES HUISSEIGNIENS3:53:2314:09 4.242896HUISSIGINES
422.1434MORLEGHEM Sébastien35BELLES HUISSEIGNIENS3:53:2514:09 4.242900LADEUZE
423.2962TARANTO Patrice37BELPT3:54:2514:13 4.222925PERUWELZ
424.2712NGUYEN Michel37FRALES NAINS PORTANT QUOI3:54:3014:13 4.222933JOINVILLE LE PONT
425.2957BIRAZ Karim35FRAPT3:54:3614:14 4.222939BURY
426.2960DEWEER Dominique37BELPT3:54:4914:14 4.222945PÉRUWELZ
427.2601ROISSE Sébastien38BELCOUCOU PETITE PERRUCHE3:54:5114:14 4.222946PÉRUWELZ
428.1081WOJKIEWICZ Ludovic37BEL3:55:4814:18 4.202948QUEVAUCAMPS
429.1119GODRIE Mathieu35BELWOLNYTEAM3:55:5214:18 4.202949FRAMERIES
430.1113DEBRABANDERE Julien37BELWOLNYTEAM3:55:5214:18 4.202950FRAMERIES
431.1114DARIMONT Pierre39BELWOLNYTEAM3:55:5314:18 4.202951MONS
432.2688VERSICHEL Cedric38BELCEDRIC VERSICHEL3:56:0414:19 4.192954RENAIX
433.2686VERSICHEL Cedric38BELCEDRIC VERSICHEL3:56:0514:19 4.192955RENAIX
434.2685VERSICHEL Cedric38BELCEDRIC VERSICHEL3:56:0714:19 4.192956RENAIX
435.2690VERSICHEL Cedric38BELCEDRIC VERSICHEL3:56:0714:19 4.192957RENAIX
436.2691VERSICHEL Cedric38BELCEDRIC VERSICHEL3:56:1114:19 4.192958RENAIX
437.1280DE ROO Dominique38BELLA TROUPE DE SECOURS3:56:3314:21 4.192967MOUSCRON
438.2319VIGIN Cedric36BEL3:57:2114:24 4.172971TOURPES
439.2112HOUDART Matthieu37BELAQUA PONEY CLUB3:57:3214:24 4.172981ARBRE
440.518LEUCKX Géraldine38BEL3:58:0514:26 4.162986MESVIN
441.2653VANDERMOSTEN Maxime39BELTROLLS RANGERS3:58:2114:27 4.152987JURBISE
442.591ROUSSEAU Cedric39BEL4:04:1014:48 4.053024STAMBRUGES
443.586HERZET Michel38BEL4:04:1114:48 4.053026QUEVAUCAMPS
444.2797LADEUZE Frédéric39BELFRÉDÉRIC LADEUZE4:04:1214:48 4.053027GRANDGLISE
445.1344HERZET Luc35BEL4:04:1414:49 4.053029QUEVAUCAMPS
446.1094MAZZEO Angelo37BEL4:04:3014:50 4.053042QUEVAUCAMPS
447.2391RAMET Ludovic35BELDOCKSID4:05:5914:55 4.023054RACOUR
448.2554MONSEUX Raphaël39BELMÊMEPASPEUR4:06:0314:55 4.023056FOREST
449.2395DOCQUIER Laurent36BELDOCKSID4:06:2814:57 4.023059HANNUT
450.4167DEBAISIEUX Christophe36BEL4:06:5014:58 4.013061QUEVAUCAMPS
451.4169DEBAISIEUX Christophe36BEL4:06:5214:58 4.013062QUEVAUCAMPS
452.4166DEBAISIEUX Christophe36BEL4:06:5214:58 4.013063QUEVAUCAMPS
453.2173MACQUE Nicolas37FRAJOWA4:09:3415:08 3.973066LA SENTINELLE
454.2769MIDULLA Vincianne37BELVENI VIDI VICI4:10:3515:12 3.953074MAINVAULT
455.1309BURY Jean-François37BELLES ZEBRES4:20:3315:48 3.803119MONTIGNIES-SUR-SAMBRE
456.1043LEPRETRE Jimmy36FRALES HERMINES4:31:5216:29 3.643130MARQUETTE LES LILLE
457.631MENEGON Thomas36BELMADRES4:47:3317:26 3.443144HORNU
DNF308COMINOTTO Silvio35FRAFOR THE FUNHORDAIN
DNF4170DEBAISIEUX Christophe36BELQUEVAUCAMPS
DNF635DEBLAERE Ludovic37BELMADRESGHLIN
DNF378DRUART Thomas36BELLA CORDEEQUEVY LE PETIT
DNF: did not finish; DSQ: disqualified; Speed in km/h
Page: [1]